Weather in Repyevka Kolkhoznaya

Russia / Ulyanovsk Oblast     54°02′57″N   47°27′12″E
temp.,
°C
wind,
m/s
gust,
m/s
humid.,
%
clouds,
%
prec.,
mm/h
press.,
hPa
HPBL,
m
7 may, fri
fri701:00+10s41171100 0.0 1015202
04:00+10s41269100 0.0 1015240
07:00+10s41172100 0.0 1015278
10:00+14s71158100 0.0 1014956
13:00+17s81146100 0.0 10131931
16:00+17s71149100 0.0 10131656
19:00+12wsw81280100 0.4 1014714
22:00+10sw2495100 2.9 1015187
8 may, sat
sat801:00+9nnw3594100 0.5 1016274
04:00+8n3594100 1.0 1017244
07:00+8ne3694100 0.1 1017255
10:00+10ene3394100 0.1 1017369
13:00+15s236738 0.1 10151088
16:00+15s2470100 0.1 1014310
19:00+16se226988 0.0 101329
22:00+12se238197 0.0 101228
9 may, sun
sun901:00+11s3378100 0.0 101246
04:00+9sse358161 0.0 101275
07:00+11sse3977100 0.0 1012243
10:00+16s5856100 0.0 1012601
13:00+19s5751100 0.0 10121464
16:00+18sw3562100 0.1 1012859
19:00+12wnw4790100 0.5 1014299
22:00+11nw3598100 6.7 1016216
10 may, mon
mon1001:00+9nnw3696100 1.1 1017241
04:00+9nnw3696100 2.1 1019242
07:00+9n5795100 0.1 1021324
10:00+10n6890100 0.2 1023486
13:00+13nne578399 0.4 1023634
16:00+13nne6881100 0.5 1024761
19:00+13nne598163 0.0 1025665
22:00+10nne612885 0.0 1026439
11 may, tue
tue1101:00+9ne612855 0.0 1026485
04:00+7ne614845 0.0 1027490
07:00+8ne613835 0.0 1027511
10:00+11ne810596 0.0 1028684
13:00+14ne79495 0.0 1028816
16:00+15ne78443 0.0 1027830
19:00+13ne611555 0.0 1028444
22:00+9ne411650 0.0 1028234